Tracking 35331 objects as of 15-Sep-2026
HD Live streaming from Space Station
objects crossing your sky now

COSMOS 2036


COSMOS 2036 is no longer on orbit


NORAD ID: 20188
Int'l Code: 1989-065A
Launch date: August 22, 1989
Source: Commonwealth of Independent States (former USSR) (CIS)
Launch site: PLESETSK MISSILE AND SPACE COMPLEX (PKMTR)
Decay date: 1989-09-05
Your satellite tracking list
Your tracking list is empty




NASA's NSSDC Master Catalog

Two Line Element Set (TLE):
1 20188U 89065  A 89247.95550890  .00275024 +13047-4 +13705-3 0  9996
2 20188 062.8174 062.6222 0028498 086.2219 274.2668 16.19437850002166
Source of the keplerian elements: AFSPC